CZ-6A DEB, 60708

Orbit data source: Space-Track

CZ-6A DEB, 60708 is space debris in LEO originally from a launch on Tue, 06 Aug 2024 UTC launched from the Taiyaun Space Center, China (TSC). Debris objects in space refer to the collection of defunct objects orbiting the Earth. Examples of debris include non-operational satellites, rocket bodies, and fragments generated from explosions, collisions, or faulty payload assembly.

Loading next visibility...
Identifier
60708, 2024-140DM
Orbit
LEO
Country
Flag of CNCN / PRC
Related business
Manufacturer
SAST
Mission
Spacecraft
Bus & Motor
Unknown
Mass
Unknown
Launch date (UTC)
2024-08-06 (1 year ago)
Launch vehicle
Unknown
Launch site
Taiyaun Space Center, China (TSC)
Object type
Payload
Rocket body
Debris
Shape & HBR
Unknown shape, 0.3 m
Radar Cross Section
Medium (>0.1 m² and <1 m²)

Expand to show TLE details & history
Last TLE update: 23 hours ago

TLE from 23 hours ago
0 CZ-6A DEB
1 60708U 24140DM  25312.67894273  .00003503  00000-0  13605-2 0  9999
2 60708  89.0035 299.2276 0039730 231.3087 128.4553 14.29296214 64717
Epoch: 2025-11-08T16:17Z
TLE epoch observation values (Epoch: 2025-11-08T16:17:40.651Z)
Latitude
-0.00001°
Longitude
6.70312°
Altitude
814.945 km
Speed
7.436 km/s
True Right ascension
19h 56m 54s
True Declination
0° 00' 00"
Sunlit
Object was in daylight at epoch
Visualization orbit readout
Latitude
Unknown
Longitude
Unknown
Altitude
Unknown
Speed
Unknown
Apparent Right ascension
Unknown
Apparent Declination
Unknown
Sunlit
N/A
Visualization observer readout
Local Sidereal Time
11:26:05
Azimuth
Unknown
Elevation
Unknown
Doppler factor
Unknown
Orbital elements
Apogee altitude
819.505 km
Perigee altitude
762.539 km
Semi-major axis
7,169.159 km
Eccentricity
0.00397
Inclination
89.0035°
RAAN
299.2276°
Arg. of periapsis
231.3087°
True anomaly
128.81072°
Mean anomaly
128.4553°
Eccentric anomaly
128.63312°
Mean motion
3.57553 °/min
Orbital period
100.68 mins
BSTAR
0.0013605
Loading maneuver chart data...
Computing Atmospheric mass density...
Loading historical data...
Loading historical data...
Loading historical data...
Loading historical data...
Loading historical data...
Loading historical data...
Loading historical data...

Documentation

Showing up to 5 results
|